THEMIS D

Last updated on Fri Feb 06 2026 00:02:42 GMT+0000 (Coordinated Universal Time)

1 30797U 07004D 26036.71384583 -.00000466 00000+0 00000+0 0 9998 2 30797 6.2328 85.9921 8370904 211.4705 157.0316 0.87836743 39926
UTC large
Height (km)
Speed (km/s)
/
Latitude / Longitude
Inclination (degrees)
Orbital Period (minutes)
Azimuth
Elevation
Range (km)
Doppler Factor

Next 0 passes for location: London (51.5072 / 0.1276)

Sorry there are no passes over London.